METEOR-M 2

Last updated on Sun Apr 12 2026 00:02:26 GMT+0000 (Coordinated Universal Time)

1 40069U 14037A 26101.48573679 .00000425 00000+0 21367-3 0 9995 2 40069 98.5075 79.6053 0004774 223.1084 136.9721 14.21443440609840
UTC large
Height (km)
Speed (km/s)
/
Latitude / Longitude
Inclination (degrees)
Orbital Period (minutes)
Azimuth
Elevation
Range (km)
Doppler Factor

Next 0 passes for location: London (51.5072 / 0.1276)

Sorry there are no passes over London.
METEOR-M 2